Year,Month,Day,Hour,Minute,Value (Times are PST for temperature in C)
2006,10,13,00,00,9.30
2006,10,13,00,01,9.30
2006,10,13,00,02,9.30
2006,10,13,00,03,9.30
2006,10,13,00,04,9.30
2006,10,13,00,05,9.30
2006,10,13,00,06,9.30
2006,10,13,00,07,9.30
2006,10,13,00,08,9.30
2006,10,13,00,09,9.20
2006,10,13,00,10,9.20
2006,10,13,00,11,9.20
2006,10,13,00,12,9.20
2006,10,13,00,13,9.20
2006,10,13,00,14,9.20
2006,10,13,00,15,9.20
2006,10,13,00,16,9.20
2006,10,13,00,17,9.20
2006,10,13,00,18,9.20
2006,10,13,00,19,9.20
2006,10,13,00,20,9.20
2006,10,13,00,21,9.20
2006,10,13,00,22,9.20
2006,10,13,00,23,9.20
2006,10,13,00,24,9.20
2006,10,13,00,25,9.20
2006,10,13,00,26,9.20
2006,10,13,00,27,9.20
2006,10,13,00,28,9.20
2006,10,13,00,29,9.20
2006,10,13,00,30,9.20
2006,10,13,00,31,9.20
2006,10,13,00,32,9.20
2006,10,13,00,33,9.20
2006,10,13,00,34,9.20
2006,10,13,00,35,9.20
2006,10,13,00,36,9.10
2006,10,13,00,37,9.10
2006,10,13,00,38,9.10
2006,10,13,00,39,9.10
2006,10,13,00,40,9.10
2006,10,13,00,41,9.10
2006,10,13,00,42,9.10
2006,10,13,00,43,9.10
2006,10,13,00,44,9.10
2006,10,13,00,45,9.10
2006,10,13,00,46,9.10
2006,10,13,00,47,9.10
2006,10,13,00,48,9.10
2006,10,13,00,49,9.10
2006,10,13,00,50,9.00
2006,10,13,00,51,9.00
2006,10,13,00,52,9.00
2006,10,13,00,53,9.00
2006,10,13,00,54,9.00
2006,10,13,00,55,9.00
2006,10,13,00,56,9.00
2006,10,13,00,57,8.90
2006,10,13,00,58,8.90
2006,10,13,00,59,8.90
2006,10,13,01,00,8.90
2006,10,13,01,01,8.90
2006,10,13,01,02,8.90
2006,10,13,01,03,8.90
2006,10,13,01,04,8.90
2006,10,13,01,05,8.90
2006,10,13,01,06,8.90
2006,10,13,01,07,8.90
2006,10,13,01,08,8.90
2006,10,13,01,09,8.80
2006,10,13,01,10,8.80
2006,10,13,01,11,8.80
2006,10,13,01,12,8.80
2006,10,13,01,13,8.80
2006,10,13,01,14,8.80
2006,10,13,01,15,8.80
2006,10,13,01,16,8.80
2006,10,13,01,17,8.80
2006,10,13,01,18,8.70
2006,10,13,01,19,8.70
2006,10,13,01,20,8.70
2006,10,13,01,21,8.70
2006,10,13,01,22,8.70
2006,10,13,01,23,8.70
2006,10,13,01,24,8.70
2006,10,13,01,25,8.70
2006,10,13,01,26,8.70
2006,10,13,01,27,8.70
2006,10,13,01,28,8.70
2006,10,13,01,29,8.60
2006,10,13,01,30,8.60
2006,10,13,01,31,8.60
2006,10,13,01,32,8.60
2006,10,13,01,33,8.60
2006,10,13,01,34,8.60
2006,10,13,01,35,8.60
2006,10,13,01,36,8.60
2006,10,13,01,37,8.60
2006,10,13,01,38,8.60
2006,10,13,01,39,8.60
2006,10,13,01,40,8.60
2006,10,13,01,41,8.60
2006,10,13,01,42,8.60
2006,10,13,01,43,8.60
2006,10,13,01,44,8.50
2006,10,13,01,45,8.50
2006,10,13,01,46,8.50
2006,10,13,01,47,8.40
2006,10,13,01,48,8.40
2006,10,13,01,49,8.40
2006,10,13,01,50,8.40
2006,10,13,01,51,8.40
2006,10,13,01,52,8.40
2006,10,13,01,53,8.40
2006,10,13,01,54,8.40
2006,10,13,01,55,8.30
2006,10,13,01,56,8.30
2006,10,13,01,57,8.30
2006,10,13,01,58,8.30
2006,10,13,01,59,8.30
2006,10,13,02,00,8.30
2006,10,13,02,01,8.30
2006,10,13,02,02,8.30
2006,10,13,02,03,8.30
2006,10,13,02,04,8.20
2006,10,13,02,05,8.20
2006,10,13,02,06,8.20
2006,10,13,02,07,8.20
2006,10,13,02,08,8.20
2006,10,13,02,09,8.20
2006,10,13,02,10,8.20
2006,10,13,02,11,8.20
2006,10,13,02,12,8.20
2006,10,13,02,13,8.20
2006,10,13,02,14,8.10
2006,10,13,02,15,8.10
2006,10,13,02,16,8.10
2006,10,13,02,17,8.10
2006,10,13,02,18,8.10
2006,10,13,02,19,8.10
2006,10,13,02,20,8.10
2006,10,13,02,21,8.10
2006,10,13,02,22,8.10
2006,10,13,02,23,8.10
2006,10,13,02,24,8.00
2006,10,13,02,25,8.00
2006,10,13,02,26,8.00
2006,10,13,02,27,8.00
2006,10,13,02,28,8.00
2006,10,13,02,29,8.00
2006,10,13,02,30,8.00
2006,10,13,02,31,8.00
2006,10,13,02,32,8.00
2006,10,13,02,33,7.90
2006,10,13,02,34,7.90
2006,10,13,02,35,7.90
2006,10,13,02,36,7.90
2006,10,13,02,37,7.90
2006,10,13,02,38,7.90
2006,10,13,02,39,7.90
2006,10,13,02,40,7.90
2006,10,13,02,41,7.90
2006,10,13,02,42,7.90
2006,10,13,02,43,7.90
2006,10,13,02,44,7.90
2006,10,13,02,45,7.90
2006,10,13,02,46,7.90
2006,10,13,02,47,7.90
2006,10,13,02,48,7.90
2006,10,13,02,49,7.90
2006,10,13,02,50,7.90
2006,10,13,02,51,7.90
2006,10,13,02,52,7.90
2006,10,13,02,53,7.90
2006,10,13,02,54,7.80
2006,10,13,02,55,7.80
2006,10,13,02,56,7.80
2006,10,13,02,57,7.80
2006,10,13,02,58,7.80
2006,10,13,02,59,7.80
2006,10,13,03,00,7.80
2006,10,13,03,01,7.80
2006,10,13,03,02,7.80
2006,10,13,03,03,7.80
2006,10,13,03,04,7.80
2006,10,13,03,05,7.80
2006,10,13,03,06,7.80
2006,10,13,03,07,7.80
2006,10,13,03,08,7.80
2006,10,13,03,09,7.80
2006,10,13,03,10,7.80
2006,10,13,03,11,7.80
2006,10,13,03,12,7.80
2006,10,13,03,13,7.80
2006,10,13,03,14,7.80
2006,10,13,03,15,7.80
2006,10,13,03,16,7.80
2006,10,13,03,17,7.80
2006,10,13,03,18,7.80
2006,10,13,03,19,7.80
2006,10,13,03,20,7.80
2006,10,13,03,21,7.80
2006,10,13,03,22,7.80
2006,10,13,03,23,7.80
2006,10,13,03,24,7.80
2006,10,13,03,25,7.80
2006,10,13,03,26,7.80
2006,10,13,03,27,7.70
2006,10,13,03,28,7.70
2006,10,13,03,29,7.70
2006,10,13,03,30,7.70
2006,10,13,03,31,7.70
2006,10,13,03,32,7.70
2006,10,13,03,33,7.70
2006,10,13,03,34,7.70
2006,10,13,03,35,7.70
2006,10,13,03,36,7.70
2006,10,13,03,37,7.70
2006,10,13,03,38,7.70
2006,10,13,03,39,7.70
2006,10,13,03,40,7.70
2006,10,13,03,41,7.70
2006,10,13,03,42,7.70
2006,10,13,03,43,7.70
2006,10,13,03,44,7.70
2006,10,13,03,45,7.70
2006,10,13,03,46,7.70
2006,10,13,03,47,7.70
2006,10,13,03,48,7.70
2006,10,13,03,49,7.70
2006,10,13,03,50,7.70
2006,10,13,03,51,7.70
2006,10,13,03,52,7.70
2006,10,13,03,53,7.70
2006,10,13,03,54,7.70
2006,10,13,03,55,7.70
2006,10,13,03,56,7.70
2006,10,13,03,57,7.70
2006,10,13,03,58,7.60
2006,10,13,03,59,7.60
2006,10,13,04,00,7.60
2006,10,13,04,01,7.60
2006,10,13,04,02,7.60
2006,10,13,04,03,7.60
2006,10,13,04,04,7.60
2006,10,13,04,05,7.60
2006,10,13,04,06,7.60
2006,10,13,04,07,7.60
2006,10,13,04,08,7.60
2006,10,13,04,09,7.60
2006,10,13,04,10,7.60
2006,10,13,04,11,7.60
2006,10,13,04,12,7.60
2006,10,13,04,13,7.60
2006,10,13,04,14,7.60
2006,10,13,04,15,7.60
2006,10,13,04,16,7.60
2006,10,13,04,17,7.60
2006,10,13,04,18,7.60
2006,10,13,04,19,7.60
2006,10,13,04,20,7.60
2006,10,13,04,21,7.60
2006,10,13,04,22,7.60
2006,10,13,04,23,7.60
2006,10,13,04,24,7.60
2006,10,13,04,25,7.60
2006,10,13,04,26,7.60
2006,10,13,04,27,7.60
2006,10,13,04,28,7.60
2006,10,13,04,29,7.60
2006,10,13,04,30,7.50
2006,10,13,04,31,7.50
2006,10,13,04,32,7.50
2006,10,13,04,33,7.50
2006,10,13,04,34,7.50
2006,10,13,04,35,7.40
2006,10,13,04,36,7.40
2006,10,13,04,37,7.40
2006,10,13,04,38,7.40
2006,10,13,04,39,7.40
2006,10,13,04,40,7.40
2006,10,13,04,41,7.40
2006,10,13,04,42,7.40
2006,10,13,04,43,7.40
2006,10,13,04,44,7.40
2006,10,13,04,45,7.30
2006,10,13,04,46,7.30
2006,10,13,04,47,7.30
2006,10,13,04,48,7.30
2006,10,13,04,49,7.30
2006,10,13,04,50,7.30
2006,10,13,04,51,7.30
2006,10,13,04,52,7.20
2006,10,13,04,53,7.20
2006,10,13,04,54,7.20
2006,10,13,04,55,7.20
2006,10,13,04,56,7.20
2006,10,13,04,57,7.20
2006,10,13,04,58,7.20
2006,10,13,04,59,7.20
2006,10,13,05,00,7.20
2006,10,13,05,01,7.20
2006,10,13,05,02,7.10
2006,10,13,05,03,7.10
2006,10,13,05,04,7.10
2006,10,13,05,05,7.10
2006,10,13,05,06,7.10
2006,10,13,05,07,7.10
2006,10,13,05,08,7.10
2006,10,13,05,09,7.10
2006,10,13,05,10,7.10
2006,10,13,05,11,7.10
2006,10,13,05,12,7.10
2006,10,13,05,13,7.10
2006,10,13,05,14,7.10
2006,10,13,05,15,7.00
2006,10,13,05,16,7.00
2006,10,13,05,17,7.00
2006,10,13,05,18,7.00
2006,10,13,05,19,7.00
2006,10,13,05,20,7.00
2006,10,13,05,21,7.00
2006,10,13,05,22,7.00
2006,10,13,05,23,7.00
2006,10,13,05,24,6.90
2006,10,13,05,25,6.90
2006,10,13,05,26,6.90
2006,10,13,05,27,6.90
2006,10,13,05,28,6.90
2006,10,13,05,29,6.90
2006,10,13,05,30,6.90
2006,10,13,05,31,6.90
2006,10,13,05,32,6.90
2006,10,13,05,33,6.90
2006,10,13,05,34,6.90
2006,10,13,05,35,6.90
2006,10,13,05,36,6.90
2006,10,13,05,37,6.90
2006,10,13,05,38,6.90
2006,10,13,05,39,6.80
2006,10,13,05,40,6.80
2006,10,13,05,41,6.80
2006,10,13,05,42,6.80
2006,10,13,05,43,6.80
2006,10,13,05,44,6.80
2006,10,13,05,45,6.80
2006,10,13,05,46,6.80
2006,10,13,05,47,6.90
2006,10,13,05,48,6.90
2006,10,13,05,49,6.80
2006,10,13,05,50,6.80
2006,10,13,05,51,6.80
2006,10,13,05,52,6.80
2006,10,13,05,53,6.80
2006,10,13,05,54,6.80
2006,10,13,05,55,6.80
2006,10,13,05,56,6.80
2006,10,13,05,57,6.80
2006,10,13,05,58,6.80
2006,10,13,05,59,6.80
2006,10,13,06,00,6.80
2006,10,13,06,01,6.80
2006,10,13,06,02,6.80
2006,10,13,06,03,6.80
2006,10,13,06,04,6.80
2006,10,13,06,05,6.80
2006,10,13,06,06,6.80
2006,10,13,06,07,6.80
2006,10,13,06,08,6.80
2006,10,13,06,09,6.80
2006,10,13,06,10,6.80
2006,10,13,06,11,6.80
2006,10,13,06,12,6.80
2006,10,13,06,13,6.80
2006,10,13,06,14,6.80
2006,10,13,06,15,6.80
2006,10,13,06,16,6.80
2006,10,13,06,17,6.80
2006,10,13,06,18,6.80
2006,10,13,06,19,6.80
2006,10,13,06,20,6.80
2006,10,13,06,21,6.80
2006,10,13,06,22,6.80
2006,10,13,06,23,6.80
2006,10,13,06,24,6.80
2006,10,13,06,25,6.80
2006,10,13,06,26,6.80
2006,10,13,06,27,6.80
2006,10,13,06,28,6.80
2006,10,13,06,29,6.80
2006,10,13,06,30,6.80
2006,10,13,06,31,6.80
2006,10,13,06,32,6.80
2006,10,13,06,33,6.80
2006,10,13,06,34,6.80
2006,10,13,06,35,6.80
2006,10,13,06,36,6.80
2006,10,13,06,37,6.80
2006,10,13,06,38,6.80
2006,10,13,06,39,6.80
2006,10,13,06,40,6.80
2006,10,13,06,41,6.80
2006,10,13,06,42,6.80
2006,10,13,06,43,6.80
2006,10,13,06,44,6.80
2006,10,13,06,45,6.70
2006,10,13,06,46,6.70
2006,10,13,06,47,6.70
2006,10,13,06,48,6.70
2006,10,13,06,49,6.70
2006,10,13,06,50,6.70
2006,10,13,06,51,6.70
2006,10,13,06,52,6.70
2006,10,13,06,53,6.70
2006,10,13,06,54,6.70
2006,10,13,06,55,6.70
2006,10,13,06,56,6.70
2006,10,13,06,57,6.70
2006,10,13,06,58,6.70
2006,10,13,06,59,6.70
2006,10,13,07,00,6.70
2006,10,13,07,01,6.70
2006,10,13,07,02,6.70
2006,10,13,07,03,6.70
2006,10,13,07,04,6.70
2006,10,13,07,05,6.70
2006,10,13,07,06,6.70
2006,10,13,07,07,6.70
2006,10,13,07,08,6.70
2006,10,13,07,09,6.70
2006,10,13,07,10,6.70
2006,10,13,07,11,6.70
2006,10,13,07,12,6.70
2006,10,13,07,13,6.70
2006,10,13,07,14,6.70
2006,10,13,07,15,6.70
2006,10,13,07,16,6.70
2006,10,13,07,17,6.70
2006,10,13,07,18,6.70
2006,10,13,07,19,6.70
2006,10,13,07,20,6.70
2006,10,13,07,21,6.70
2006,10,13,07,22,6.70
2006,10,13,07,23,6.70
2006,10,13,07,24,6.60
2006,10,13,07,25,6.60
2006,10,13,07,26,6.60
2006,10,13,07,27,6.60
2006,10,13,07,28,6.60
2006,10,13,07,29,6.60
2006,10,13,07,30,6.60
2006,10,13,07,31,6.60
2006,10,13,07,32,6.60
2006,10,13,07,33,6.60
2006,10,13,07,34,6.50
2006,10,13,07,35,6.50
2006,10,13,07,36,6.50
2006,10,13,07,37,6.50
2006,10,13,07,38,6.50
2006,10,13,07,39,6.50
2006,10,13,07,40,6.50
2006,10,13,07,41,6.40
2006,10,13,07,42,6.40
2006,10,13,07,43,6.40
2006,10,13,07,44,6.40
2006,10,13,07,45,6.40
2006,10,13,07,46,6.40
2006,10,13,07,47,6.40
2006,10,13,07,48,6.30
2006,10,13,07,49,6.30
2006,10,13,07,50,6.30
2006,10,13,07,51,6.30
2006,10,13,07,52,6.30
2006,10,13,07,53,6.30
2006,10,13,07,54,6.30
2006,10,13,07,55,6.40
2006,10,13,07,56,6.40
2006,10,13,07,57,6.40
2006,10,13,07,58,6.40
2006,10,13,07,59,6.40
2006,10,13,08,00,6.40
2006,10,13,08,01,6.40
2006,10,13,08,02,6.40
2006,10,13,08,03,6.40
2006,10,13,08,04,6.40
2006,10,13,08,05,6.40
2006,10,13,08,06,6.40
2006,10,13,08,07,6.40
2006,10,13,08,08,6.40
2006,10,13,08,09,6.40
2006,10,13,08,10,6.40
2006,10,13,08,11,6.40
2006,10,13,08,12,6.40
2006,10,13,08,13,6.40
2006,10,13,08,14,6.40
2006,10,13,08,15,6.40
2006,10,13,08,16,6.40
2006,10,13,08,17,6.40
2006,10,13,08,18,6.40
2006,10,13,08,19,6.40
2006,10,13,08,20,6.40
2006,10,13,08,21,6.40
2006,10,13,08,22,6.40
2006,10,13,08,23,6.40
2006,10,13,08,24,6.40
2006,10,13,08,25,6.40
2006,10,13,08,26,6.40
2006,10,13,08,27,6.50
2006,10,13,08,28,6.50
2006,10,13,08,29,6.50
2006,10,13,08,30,6.60
2006,10,13,08,31,6.60
2006,10,13,08,32,6.60
2006,10,13,08,33,6.70
2006,10,13,08,34,6.70
2006,10,13,08,35,6.70
2006,10,13,08,36,6.70
2006,10,13,08,37,6.70
2006,10,13,08,38,6.70
2006,10,13,08,39,6.70
2006,10,13,08,40,6.70
2006,10,13,08,41,6.70
2006,10,13,08,42,6.70
2006,10,13,08,43,6.70
2006,10,13,08,44,6.70
2006,10,13,08,45,6.70
2006,10,13,08,46,6.70
2006,10,13,08,47,6.70
2006,10,13,08,48,6.70
2006,10,13,08,49,6.70
2006,10,13,08,50,6.80
2006,10,13,08,51,6.80
2006,10,13,08,52,6.80
2006,10,13,08,53,6.80
2006,10,13,08,54,6.80
2006,10,13,08,55,6.90
2006,10,13,08,56,6.90
2006,10,13,08,57,7.00
2006,10,13,08,58,7.10
2006,10,13,08,59,7.10
2006,10,13,09,00,7.20
2006,10,13,09,01,7.20
2006,10,13,09,02,7.20
2006,10,13,09,03,7.20
2006,10,13,09,04,7.20
2006,10,13,09,05,7.20
2006,10,13,09,06,7.20
2006,10,13,09,07,7.20
2006,10,13,09,08,7.20
2006,10,13,09,09,7.20
2006,10,13,09,10,7.20
2006,10,13,09,11,7.20
2006,10,13,09,12,7.30
2006,10,13,09,13,7.40
2006,10,13,09,14,7.50
2006,10,13,09,15,7.60
2006,10,13,09,16,7.70
2006,10,13,09,17,7.80
2006,10,13,09,18,7.80
2006,10,13,09,19,7.90
2006,10,13,09,20,8.00
2006,10,13,09,21,8.10
2006,10,13,09,22,8.10
2006,10,13,09,23,8.20
2006,10,13,09,24,8.30
2006,10,13,09,25,8.30
2006,10,13,09,26,8.40
2006,10,13,09,27,8.50
2006,10,13,09,28,8.50
2006,10,13,09,29,8.60
2006,10,13,09,30,8.70
2006,10,13,09,31,8.80
2006,10,13,09,32,9.00
2006,10,13,09,33,9.10
2006,10,13,09,34,9.20
2006,10,13,09,35,9.30
2006,10,13,09,36,9.40
2006,10,13,09,37,9.60
2006,10,13,09,38,9.70
2006,10,13,09,39,9.80
2006,10,13,09,40,9.90
2006,10,13,09,41,10.00
2006,10,13,09,42,10.20
2006,10,13,09,43,10.20
2006,10,13,09,44,10.30
2006,10,13,09,45,10.40
2006,10,13,09,46,10.50
2006,10,13,09,47,10.60
2006,10,13,09,48,10.70
2006,10,13,09,49,10.80
2006,10,13,09,50,11.00
2006,10,13,09,51,11.10
2006,10,13,09,52,11.20
2006,10,13,09,53,11.30
2006,10,13,09,54,11.40
2006,10,13,09,55,11.50
2006,10,13,09,56,11.60
2006,10,13,09,57,11.70
2006,10,13,09,58,11.80
2006,10,13,09,59,11.90
2006,10,13,10,00,12.00
2006,10,13,10,01,12.00
2006,10,13,10,02,12.10
2006,10,13,10,03,12.20
2006,10,13,10,04,12.30
2006,10,13,10,05,12.30
2006,10,13,10,06,12.30
2006,10,13,10,07,12.30
2006,10,13,10,08,12.30
2006,10,13,10,09,12.30
2006,10,13,10,10,12.30
2006,10,13,10,11,12.30
2006,10,13,10,12,12.30
2006,10,13,10,13,12.30
2006,10,13,10,14,12.30
2006,10,13,10,15,12.30
2006,10,13,10,16,12.40
2006,10,13,10,17,12.50
2006,10,13,10,18,12.50
2006,10,13,10,19,12.60
2006,10,13,10,20,12.70
2006,10,13,10,21,12.80
2006,10,13,10,22,12.80
2006,10,13,10,23,12.80
2006,10,13,10,24,12.80
2006,10,13,10,25,12.70
2006,10,13,10,26,12.70
2006,10,13,10,27,12.60
2006,10,13,10,28,12.60
2006,10,13,10,29,12.60
2006,10,13,10,30,12.50
2006,10,13,10,31,12.50
2006,10,13,10,32,12.60
2006,10,13,10,33,12.60
2006,10,13,10,34,12.60
2006,10,13,10,35,12.70
2006,10,13,10,36,12.70
2006,10,13,10,37,12.80
2006,10,13,10,38,12.80
2006,10,13,10,39,12.90
2006,10,13,10,40,13.00
2006,10,13,10,41,13.00
2006,10,13,10,42,13.10
2006,10,13,10,43,13.10
2006,10,13,10,44,13.10
2006,10,13,10,45,13.00
2006,10,13,10,46,13.00
2006,10,13,10,47,12.90
2006,10,13,10,48,12.90
2006,10,13,10,49,12.90
2006,10,13,10,50,13.00
2006,10,13,10,51,13.00
2006,10,13,10,52,13.00
2006,10,13,10,53,13.10
2006,10,13,10,54,13.10
2006,10,13,10,55,13.10
2006,10,13,10,56,13.10
2006,10,13,10,57,13.20
2006,10,13,10,58,13.20
2006,10,13,10,59,13.30
2006,10,13,11,00,13.30
2006,10,13,11,01,13.30
2006,10,13,11,02,13.40
2006,10,13,11,03,13.40
2006,10,13,11,04,13.50
2006,10,13,11,05,13.50
2006,10,13,11,06,13.60
2006,10,13,11,07,13.60
2006,10,13,11,08,13.60
2006,10,13,11,09,13.60
2006,10,13,11,10,13.60
2006,10,13,11,11,13.60
2006,10,13,11,12,13.70
2006,10,13,11,13,13.70
2006,10,13,11,14,13.70
2006,10,13,11,15,13.70
2006,10,13,11,16,13.70
2006,10,13,11,17,13.70
2006,10,13,11,18,13.70
2006,10,13,11,19,13.70
2006,10,13,11,20,13.70
2006,10,13,11,21,13.70
2006,10,13,11,22,13.80
2006,10,13,11,23,13.80
2006,10,13,11,24,13.90
2006,10,13,11,25,13.90
2006,10,13,11,26,14.00
2006,10,13,11,27,14.10
2006,10,13,11,28,14.10
2006,10,13,11,29,14.20
2006,10,13,11,30,14.20
2006,10,13,11,31,14.30
2006,10,13,11,32,14.40
2006,10,13,11,33,14.50
2006,10,13,11,34,14.60
2006,10,13,11,35,14.70
2006,10,13,11,36,14.80
2006,10,13,11,37,14.90
2006,10,13,11,38,14.90
2006,10,13,11,39,15.00
2006,10,13,11,40,15.00
2006,10,13,11,41,15.10
2006,10,13,11,42,15.20
2006,10,13,11,43,15.30
2006,10,13,11,44,15.40
2006,10,13,11,45,15.50
2006,10,13,11,46,15.50
2006,10,13,11,47,15.60
2006,10,13,11,48,15.60
2006,10,13,11,49,15.70
2006,10,13,11,50,15.70
2006,10,13,11,51,15.70
2006,10,13,11,52,15.70
2006,10,13,11,53,15.70
2006,10,13,11,54,15.60
2006,10,13,11,55,15.60
2006,10,13,11,56,15.60
2006,10,13,11,57,15.60
2006,10,13,11,58,15.60
2006,10,13,11,59,15.50
2006,10,13,12,00,15.50
2006,10,13,12,01,15.50
2006,10,13,12,02,15.50
2006,10,13,12,03,15.40
2006,10,13,12,04,15.40
2006,10,13,12,05,15.40
2006,10,13,12,06,15.40
2006,10,13,12,07,15.40
2006,10,13,12,08,15.40
2006,10,13,12,09,15.40
2006,10,13,12,10,15.50
2006,10,13,12,11,15.50
2006,10,13,12,12,15.50
2006,10,13,12,13,15.40
2006,10,13,12,14,15.40
2006,10,13,12,15,15.40
2006,10,13,12,16,15.40
2006,10,13,12,17,15.40
2006,10,13,12,18,15.40
2006,10,13,12,19,15.40
2006,10,13,12,20,15.40
2006,10,13,12,21,15.30
2006,10,13,12,22,15.30
2006,10,13,12,23,15.30
2006,10,13,12,24,15.20
2006,10,13,12,25,15.20
2006,10,13,12,26,15.10
2006,10,13,12,27,15.10
2006,10,13,12,28,15.00
2006,10,13,12,29,15.00
2006,10,13,12,30,15.00
2006,10,13,12,31,15.00
2006,10,13,12,32,15.10
2006,10,13,12,33,15.00
2006,10,13,12,34,15.10
2006,10,13,12,35,15.10
2006,10,13,12,36,15.10
2006,10,13,12,37,15.20
2006,10,13,12,38,15.30
2006,10,13,12,39,15.30
2006,10,13,12,40,15.40
2006,10,13,12,41,15.30
2006,10,13,12,42,15.30
2006,10,13,12,43,15.30
2006,10,13,12,44,15.30
2006,10,13,12,45,15.40
2006,10,13,12,46,15.40
2006,10,13,12,47,15.40
2006,10,13,12,48,15.50
2006,10,13,12,49,15.50
2006,10,13,12,50,15.50
2006,10,13,12,51,15.50
2006,10,13,12,52,15.60
2006,10,13,12,53,15.60
2006,10,13,12,54,15.60
2006,10,13,12,55,15.70
2006,10,13,12,56,15.70
2006,10,13,12,57,15.80
2006,10,13,12,58,15.80
2006,10,13,12,59,15.80
2006,10,13,13,00,15.80
2006,10,13,13,01,15.90
2006,10,13,13,02,15.90
2006,10,13,13,03,16.00
2006,10,13,13,04,16.00
2006,10,13,13,05,16.10
2006,10,13,13,06,16.10
2006,10,13,13,07,16.10
2006,10,13,13,08,16.20
2006,10,13,13,09,16.20
2006,10,13,13,10,16.20
2006,10,13,13,11,16.20
2006,10,13,13,12,16.20
2006,10,13,13,13,16.20
2006,10,13,13,14,16.20
2006,10,13,13,15,16.20
2006,10,13,13,16,16.20
2006,10,13,13,17,16.20
2006,10,13,13,18,16.20
2006,10,13,13,19,16.20
2006,10,13,13,20,16.20
2006,10,13,13,21,16.20
2006,10,13,13,22,16.10
2006,10,13,13,23,16.10
2006,10,13,13,24,16.10
2006,10,13,13,25,16.00
2006,10,13,13,26,16.00
2006,10,13,13,27,15.90
2006,10,13,13,28,15.90
2006,10,13,13,29,15.90
2006,10,13,13,30,15.90
2006,10,13,13,31,15.90
2006,10,13,13,32,16.00
2006,10,13,13,33,16.00
2006,10,13,13,34,16.00
2006,10,13,13,35,15.90
2006,10,13,13,36,15.90
2006,10,13,13,37,15.90
2006,10,13,13,38,16.00
2006,10,13,13,39,16.10
2006,10,13,13,40,16.10
2006,10,13,13,41,16.00
2006,10,13,13,42,16.00
2006,10,13,13,43,16.00
2006,10,13,13,44,15.90
2006,10,13,13,45,15.90
2006,10,13,13,46,16.00
2006,10,13,13,47,16.00
2006,10,13,13,48,16.00
2006,10,13,13,49,16.00
2006,10,13,13,50,16.10
2006,10,13,13,51,16.10
2006,10,13,13,52,16.10
2006,10,13,13,53,16.20
2006,10,13,13,54,16.20
2006,10,13,13,55,16.20
2006,10,13,13,56,16.20
2006,10,13,13,57,16.10
2006,10,13,13,58,16.20
2006,10,13,13,59,16.20
2006,10,13,14,00,16.20
2006,10,13,14,01,16.30
2006,10,13,14,02,16.30
2006,10,13,14,03,16.20
2006,10,13,14,04,16.20
2006,10,13,14,05,16.20
2006,10,13,14,06,16.20
2006,10,13,14,07,16.20
2006,10,13,14,08,16.20
2006,10,13,14,09,16.20
2006,10,13,14,10,16.20
2006,10,13,14,11,16.10
2006,10,13,14,12,16.10
2006,10,13,14,13,16.10
2006,10,13,14,14,16.10
2006,10,13,14,15,16.10
2006,10,13,14,16,16.00
2006,10,13,14,17,16.00
2006,10,13,14,18,16.00
2006,10,13,14,19,15.90
2006,10,13,14,20,15.90
2006,10,13,14,21,15.90
2006,10,13,14,22,15.90
2006,10,13,14,23,15.90
2006,10,13,14,24,16.00
2006,10,13,14,25,16.00
2006,10,13,14,26,16.00
2006,10,13,14,27,16.10
2006,10,13,14,28,16.10
2006,10,13,14,29,16.10
2006,10,13,14,30,16.10
2006,10,13,14,31,16.00
2006,10,13,14,32,16.00
2006,10,13,14,33,16.00
2006,10,13,14,34,15.90
2006,10,13,14,35,15.90
2006,10,13,14,36,15.90
2006,10,13,14,37,15.90
2006,10,13,14,38,15.90
2006,10,13,14,39,15.90
2006,10,13,14,40,16.00
2006,10,13,14,41,16.00
2006,10,13,14,42,16.00
2006,10,13,14,43,16.10
2006,10,13,14,44,16.10
2006,10,13,14,45,16.10
2006,10,13,14,46,16.00
2006,10,13,14,47,16.00
2006,10,13,14,48,15.90
2006,10,13,14,49,15.90
2006,10,13,14,50,15.90
2006,10,13,14,51,16.00
2006,10,13,14,52,16.00
2006,10,13,14,53,16.00
2006,10,13,14,54,15.90
2006,10,13,14,55,15.90
2006,10,13,14,56,15.90
2006,10,13,14,57,16.00
2006,10,13,14,58,16.00
2006,10,13,14,59,16.00
2006,10,13,15,00,16.10
2006,10,13,15,01,16.10
2006,10,13,15,02,16.10
2006,10,13,15,03,16.10
2006,10,13,15,04,16.10
2006,10,13,15,05,16.20
2006,10,13,15,06,16.20
2006,10,13,15,07,16.20
2006,10,13,15,08,16.30
2006,10,13,15,09,16.30
2006,10,13,15,10,16.30
2006,10,13,15,11,16.40
2006,10,13,15,12,16.40
2006,10,13,15,13,16.40
2006,10,13,15,14,16.40
2006,10,13,15,15,16.40
2006,10,13,15,16,16.50
2006,10,13,15,17,16.50
2006,10,13,15,18,16.50
2006,10,13,15,19,16.60
2006,10,13,15,20,16.60
2006,10,13,15,21,16.70
2006,10,13,15,22,16.80
2006,10,13,15,23,16.80
2006,10,13,15,24,16.80
2006,10,13,15,25,16.80
2006,10,13,15,26,16.80
2006,10,13,15,27,16.80
2006,10,13,15,28,16.90
2006,10,13,15,29,16.90
2006,10,13,15,30,16.90
2006,10,13,15,31,17.00
2006,10,13,15,32,17.00
2006,10,13,15,33,17.00
2006,10,13,15,34,17.10
2006,10,13,15,35,17.10
2006,10,13,15,36,17.10
2006,10,13,15,37,17.10
2006,10,13,15,38,17.10
2006,10,13,15,39,17.20
2006,10,13,15,40,17.20
2006,10,13,15,41,17.20
2006,10,13,15,42,17.20
2006,10,13,15,43,17.20
2006,10,13,15,44,17.20
2006,10,13,15,45,17.20
2006,10,13,15,46,17.20
2006,10,13,15,47,17.30
2006,10,13,15,48,17.20
2006,10,13,15,49,17.20
2006,10,13,15,50,17.20
2006,10,13,15,51,17.20
2006,10,13,15,52,17.20
2006,10,13,15,53,17.20
2006,10,13,15,54,17.20
2006,10,13,15,55,17.30
2006,10,13,15,56,17.30
2006,10,13,15,57,17.20
2006,10,13,15,58,17.20
2006,10,13,15,59,17.20
2006,10,13,16,00,17.20
2006,10,13,16,01,17.30
2006,10,13,16,02,17.30
2006,10,13,16,03,17.30
2006,10,13,16,04,17.40
2006,10,13,16,05,17.40
2006,10,13,16,06,17.50
2006,10,13,16,07,17.50
2006,10,13,16,08,17.50
2006,10,13,16,09,17.40
2006,10,13,16,10,17.40
2006,10,13,16,11,17.40
2006,10,13,16,12,17.40
2006,10,13,16,13,17.40
2006,10,13,16,14,17.40
2006,10,13,16,15,17.40
2006,10,13,16,16,17.40
2006,10,13,16,17,17.40
2006,10,13,16,18,17.40
2006,10,13,16,19,17.30
2006,10,13,16,20,17.20
2006,10,13,16,21,17.10
2006,10,13,16,22,17.10
2006,10,13,16,23,17.00
2006,10,13,16,24,16.90
2006,10,13,16,25,16.90
2006,10,13,16,26,16.90
2006,10,13,16,27,16.90
2006,10,13,16,28,16.90
2006,10,13,16,29,16.90
2006,10,13,16,30,17.00
2006,10,13,16,31,17.00
2006,10,13,16,32,17.00
2006,10,13,16,33,16.90
2006,10,13,16,34,16.90
2006,10,13,16,35,16.90
2006,10,13,16,36,16.90
2006,10,13,16,37,16.90
2006,10,13,16,38,16.90
2006,10,13,16,39,16.90
2006,10,13,16,40,16.90
2006,10,13,16,41,16.90
2006,10,13,16,42,16.90
2006,10,13,16,43,16.90
2006,10,13,16,44,16.90
2006,10,13,16,45,16.90
2006,10,13,16,46,16.90
2006,10,13,16,47,16.80
2006,10,13,16,48,16.70
2006,10,13,16,49,16.60
2006,10,13,16,50,16.60
2006,10,13,16,51,16.50
2006,10,13,16,52,16.40
2006,10,13,16,53,16.40
2006,10,13,16,54,16.40
2006,10,13,16,55,16.40
2006,10,13,16,56,16.40
2006,10,13,16,57,16.30
2006,10,13,16,58,16.30
2006,10,13,16,59,16.30
2006,10,13,17,00,16.30
2006,10,13,17,01,16.20
2006,10,13,17,02,16.20
2006,10,13,17,03,16.20
2006,10,13,17,04,16.10
2006,10,13,17,05,16.10
2006,10,13,17,06,16.00
2006,10,13,17,07,15.90
2006,10,13,17,08,15.90
2006,10,13,17,09,15.80
2006,10,13,17,10,15.80
2006,10,13,17,11,15.70
2006,10,13,17,12,15.70
2006,10,13,17,13,15.70
2006,10,13,17,14,15.60
2006,10,13,17,15,15.60
2006,10,13,17,16,15.60
2006,10,13,17,17,15.50
2006,10,13,17,18,15.50
2006,10,13,17,19,15.50
2006,10,13,17,20,15.40
2006,10,13,17,21,15.40
2006,10,13,17,22,15.30
2006,10,13,17,23,15.30
2006,10,13,17,24,15.30
2006,10,13,17,25,15.20
2006,10,13,17,26,15.20
2006,10,13,17,27,15.20
2006,10,13,17,28,15.10
2006,10,13,17,29,15.10
2006,10,13,17,30,15.00
2006,10,13,17,31,15.00
2006,10,13,17,32,15.00
2006,10,13,17,33,15.00
2006,10,13,17,34,15.00
2006,10,13,17,35,14.90
2006,10,13,17,36,14.90
2006,10,13,17,37,14.80
2006,10,13,17,38,14.80
2006,10,13,17,39,14.70
2006,10,13,17,40,14.70
2006,10,13,17,41,14.70
2006,10,13,17,42,14.70
2006,10,13,17,43,14.60
2006,10,13,17,44,14.60